Starlink 2354

operational
NORAD ID: 47894 Int'l Des: 2021-021 Owner: SPXS Country: US Constellation: starlink
LEOCIRCULARSTARLINK_TYPE

Über Starlink 2354

Beschreibung wird geladen...

Live-Position

3D-Globus wird geladen...

Nächste Überflüge

Höhenverlauf

Altitude vs Time

uPlot chart will show altitude changes over time

Zweizeiliger Elementsatz

1 47894U 21021AL 26034.39760640 .00001809 00000-0 14023-3 0 9999
2 47894 53.0539 65.5649 0001597 91.5836 268.5336 15.06412937270974
Epoch: 3. Feb. 2026 • Age: 22 hours

Aktueller Status

Höhe 550.8 km
Geschwindigkeit 7.59 km/s
Subsatellitenpunkt -12.23°S, 161.08°E
Startdatum 14. März 2021
Alter 4.8 years
Typ internet

Technische Details

Klassifizierung Payload
Masse 260.00 kg
Trockenmasse 248.00 kg
Gesamtmasse 260.00 kg
Länge 0.20 m
Durchmesser 2.80 m
Spannweite 9.00 m
Form Box + pan
Hersteller SPXS
Bus-Typ Starlink
Phasenstatus In Orbit
Besitzer/Staat SPXS/US

Große Konstellationen

Loading constellations...